SCP
0 0 0 0 -0 -0 -0 -0 -0 -0 -0 -0 -0 -0 -0 -0 -0 -0 -0 0 0 -0 0 -0 -0 -0 -0 -0 -0 0 0 -0 -0 -0 -0 -0 -0 0 0 -0 0 0 0
0 0 0 0 -0 -0 -0 -0 -0 -0 -0 -0 -0 -0 -0 -0 -0 -0 -0 -0 0 0 -0 -0 -0 -0 -0 -0 0 -0 -0 -0 -0 -0 -0 -0 -0 0 0 0 0 0 0
-0 0 0 0 0 -0 -0 -0 -0 -0 0 0 -0 -0 -0 -0 0 -0 -0 -0 -0 -0 0 0 0 -0 0 0 -0 -0 -0 0 -0 -0 -0 0 -0 0 0 0 0 0 0
-0 0 0 0 0 -0 -0 -0 -0 -0 -0 -0 -0 -0 -0 -0 0 -0 -0 0 -0 -0 0 0 0 -0 -0 -0 -0 -0 -0 -0 -0 -0 0 0 -0 0 -0 0 0 0 0
-0 0 0 0 -0 -0 -0 -0 -0 -0 -0 -0 -0 -0 -0 -0 0 -0 -0 0 0 0 0 -0 0 -0 -0 -0 -0 0 -0 0 0 -0 -0 -0 -0 0 -0 -0 0 0 0
-0 0 0 -0 -0 -0 -0 -0 -0 -0 -0 -0 -0 -0 -0 -0 -0 -0 -0 0 0 0 -0 -0 -0 -0 -0 -0 -0 0 0 0 -0 -0 0 0 0 -0 -0 -0 -0 0 0
-0 -0 0 -0 -0 -0 -0 -0 -0 -0 -0 -0 -0 -0 -0 -0 -0 -0 -0 -0 -0 -0 0 0 -0 -0 -0 -0 -0 -0 -0 -0 -0 0 -0 0 0 -0 -0 -0 -0 -0 0
-0 -0 -0 -0 -0 -0 -0 -0 -0 -0 -0 -0 -0 -0 -0 -0 -0 -0 -0 -0 -0 -0 -0 0 -0 -0 -0 -0 -0 0 0 0 0 0 -0 0 -0 -0 -0 -0 -0 -0 0
-0 -0 -0 -0 -0 -0 -0 -0 -0 -0 -0 -0 -0 -0 -0 -0 -0 -0 -0 -0 -0 -0 -0 -0 -0 -0 -0 -0 -0 -0 -0 -0 0 0 0 0 0 -0 -0 -0 -0 -0 -0
-0 -0 -0 -0 -0 -0 -0 -0 -0 -0 -0 -0 -0 -0 -0 -0 -0 -0 -0 -0 -0 -0 -0 0 0 0 -0 -0 -0 -0 -0 -0 0 0 0 0 -0 -0 -0 -0 -0 -0 -0
-0 -0 -0 -0 -0 -0 -0 -0 -0 -0 -0 -0 -0 -0 -0 -0 0 0 0 -0 -0 -0 -0 -0 0 0 -0 -0 -0 -0 -0 0 0 0 0 -0 -0 -0 -0 -0 0 -0 -0
-0 -0 -0 -0 -0 -0 -0 0 0 0 0 0 -0 0 0 0 0 0 0 -0 -0 -0 -0 -0 -0 0 0 -0 -0 -0 -0 -0 0 -0 -0 0 0 -0 -0 -0 -0 0 0
-0 -0 -0 -0 -0 -0 -0 0 -0 -0 0 -0 -0 -0 0 0 0 0 -0 0 -0 0 -0 -0 -0 -0 -0 -0 -0 -0 -0 0 0 0 0 0 0 -0 -0 -0 -0 0 0
-0 -0 -0 -0 -0 -0 0 0 0 0 0 0 -0 -0 -0 -0 -0 0 0 0 0 -0 -0 -0 -0 0 0 -0 0 0 -0 -0 -0 -0 0 0 0 0 -0 -0 -0 -0 0
-0 -0 -0 -0 -0 -0 -0 0 0 0 0 0 -0 0 -0 0 -0 -0 0 0 0 0 -0 -0 -0 -0 -0 -0 0 0 -0 -0 0 -0 -0 0 0 0 0 -0 -0 -0 -0
-1 -0 -0 -0 -0 -0 -0 -0 0 0 0 0 0 0 0 -0 0 0 -0 0 0 -0 -0 -0 -0 0 -0 0 0 -0 -0 -0 0 -0 -0 0 -0 -0 -0 -0 -0 -0 -0
-1 -1 -0 -0 -0 -0 -0 -0 0 0 -0 0 -0 -0 -0 0 0 0 0 0 -0 -0 -0 0 0 0 0 0 -0 -0 0 -0 -0 -0 -0 -0 0 -0 0 -0 -0 0 0
-0 -0 -0 -0 -0 -0 -0 0 -0 0 0 0 -0 0 0 0 0 0 0 0 0 0 0 0 0 0 0 0 0 0 0 0 0 0 -0 -0 -0 0 -0 0 0 0 0
-0 -0 -0 -0 0 -0 -0 0 0 0 0 0 0 0 0 0 0 0 0 0 0 0 0 0 0 0 0 0 0 0 0 0 0 -0 -0 -0 0 0 0 -0 0 0 0
-0 -0 -0 0 0 0 0 0 0 0 0 0 0 -0 -0 0 0 0 0 0 0 0 0 0 0 0 0 0 0 0 0 0 -0 -0 -0 -0 0 0 -0 0 0 0 0
-0 -0 -0 -0 0 0 0 0 0 0 0 0 0 0 -0 -0 0 0 0 0 0 0 0 0 0 0 0 0 0 0 0 0 -0 0 0 0 0 0 0 -0 -0 -0 0
-0 -0 -0 -0 -0 0 0 0 0 0 -0 0 0 0 -0 -0 -0 0 0 0 0 0 0 0 0 0 0 0 0 0 0 0 0 0 0 0 -0 0 0 0 -0 -0 0
-1 -0 -1 -1 -0 -0 0 0 0 0 0 0 0 0 0 -0 -0 -0 0 0 0 0 0 0 0 0 0 0 0 0 0 0 0 0 0 0 -0 0 0 0 -0 -0 -0
-1 -1 -1 -1 -1 -0 -0 0 0 0 0 -0 0 0 0 0 -0 0 0 0 0 0 0 0 0 0 0 0 0 0 0 0 0 0 0 0 0 0 0 0 -0 0 0
-0 -1 -1 -1 -1 -1 -1 -0 -0 0 0 0 0 0 0 0 0 0 0 0 0 0 0 0 0 0 0 0 0 0 0 0 0 0 0 0 0 -0 0 0 0 -0 -0
-0 -1 -1 -1 -1 -1 -1 -1 -0 -0 0 0 0 0 0 0 0 0 0 0 0 0 0 0 0 0 0 0 0 0 0 0 0 0 0 -0 0 0 0 0 0 0 -0
Wind_Speed_500mb
60 58 53 51 49 46 45 49 46 46 43 39 35 33 30 26 26 27 28 26 25 26 26 29 33 29 30 29 33 35 36 35 37 42 45 44 43 42 44 47 46 47 46
69 62 53 50 48 46 44 45 45 45 42 38 33 27 25 24 25 28 29 30 29 30 31 32 37 38 32 34 37 39 37 34 41 43 44 40 45 42 43 45 43 45 45
65 62 55 50 47 45 44 41 40 39 37 34 31 26 22 22 25 29 31 32 32 34 38 41 43 38 31 40 40 43 44 42 38 38 40 42 41 39 41 43 44 45 46
62 60 57 53 48 45 42 40 37 35 33 31 29 25 22 21 29 31 31 30 31 35 40 42 37 33 34 39 40 45 47 46 39 32 38 38 39 37 37 42 41 42 43
61 59 57 55 50 45 42 41 37 34 33 30 27 26 27 30 32 33 31 30 31 37 39 37 33 34 42 43 43 39 34 30 35 29 31 36 40 36 37 40 40 39 38
61 59 57 55 50 45 43 39 35 32 30 29 28 28 30 31 34 33 33 32 32 34 36 37 34 41 43 38 33 36 29 28 31 27 27 32 36 36 35 37 35 34 36
63 60 56 52 48 44 41 37 34 32 30 28 28 28 28 30 30 31 31 32 30 32 35 37 38 42 42 37 38 38 28 30 24 21 25 28 33 33 33 34 34 35 34
63 59 54 49 47 45 42 38 34 32 31 28 29 27 26 27 29 29 29 29 29 30 33 36 38 41 38 34 33 34 32 28 21 14 16 24 28 28 31 32 32 32 32
53 52 53 51 47 43 41 39 37 34 31 30 28 26 23 24 25 27 29 27 27 29 31 34 36 36 39 32 26 28 31 26 16 8 13 19 24 26 28 29 29 31 29
62 53 50 50 48 46 42 39 37 36 35 32 29 26 24 21 22 24 25 26 25 24 28 30 33 36 37 31 25 24 22 25 18 9 15 19 23 25 27 26 28 28 28
62 58 55 49 48 46 43 41 38 37 34 34 30 27 25 23 23 22 23 23 23 22 23 28 31 32 39 33 31 22 22 21 18 18 18 18 23 24 27 27 26 28 28
59 58 54 51 48 47 45 42 39 37 35 34 31 27 29 25 21 22 22 21 21 23 24 25 29 31 31 33 35 29 18 17 21 21 18 17 18 23 27 28 27 28 28
49 49 54 51 49 48 47 43 37 35 34 34 32 28 23 21 21 21 17 19 23 24 24 24 27 29 29 37 40 33 26 22 21 20 24 20 20 21 27 29 28 28 28
51 41 47 49 47 46 44 39 35 35 35 34 35 34 29 24 19 16 14 18 26 25 24 21 24 26 31 28 31 33 33 33 30 30 34 27 25 25 28 30 26 26 29
54 50 48 46 49 47 43 35 31 32 34 40 34 32 29 23 18 14 20 26 24 20 19 18 23 21 27 24 20 25 29 8 27 34 48 32 31 31 30 29 33 29 30
58 51 53 47 35 42 39 30 35 32 35 34 30 29 27 25 21 13 19 23 19 15 12 15 21 14 25 20 26 27 27 19 14 19 38 44 39 38 34 34 33 33 33
59 53 61 52 40 40 37 31 36 31 33 31 30 27 24 25 25 21 21 24 21 19 19 27 25 25 22 18 31 22 28 25 22 19 38 38 41 40 37 35 36 35 34
55 66 60 61 50 47 42 38 33 32 31 31 28 36 27 24 26 26 27 30 32 27 18 22 24 23 18 17 21 21 29 29 28 29 39 39 41 42 42 40 38 40 33
68 64 64 70 59 51 45 45 43 36 33 32 37 42 34 30 27 19 28 27 29 32 26 27 25 20 21 23 22 27 32 29 33 30 36 35 36 41 42 45 47 44 41
72 76 59 73 61 56 47 50 50 45 39 24 35 41 44 35 30 24 19 25 32 32 32 31 27 27 21 16 19 17 31 32 33 36 36 40 40 44 45 45 46 49 46
71 73 67 76 62 59 58 56 61 54 53 39 31 31 40 33 33 28 25 23 23 32 30 29 29 24 22 19 19 17 24 31 35 40 36 40 45 46 51 51 50 50 56
68 71 75 68 62 68 61 52 46 43 57 48 39 30 36 35 37 33 29 25 21 28 34 31 31 23 22 24 17 14 12 27 37 41 42 45 43 45 48 52 54 57 58
66 61 69 62 58 58 55 52 50 43 41 54 57 49 41 38 39 38 36 32 27 31 33 29 24 24 23 22 25 21 11 13 13 35 40 43 43 45 48 48 52 55 57
73 67 65 59 57 59 55 52 54 56 54 49 51 49 50 47 45 39 37 35 32 30 35 31 26 25 25 26 29 32 30 13 14 10 31 44 42 45 45 53 56 52 50
73 72 69 64 63 60 60 59 56 59 55 44 44 48 54 50 48 45 43 40 36 36 39 34 35 33 32 30 31 33 34 36 29 21 15 21 44 47 48 50 57 57 56
74 73 69 70 68 64 60 60 57 61 60 56 53 56 52 52 52 53 51 48 45 41 41 42 36 33 36 39 37 34 36 34 32 35 39 35 22 31 46 52 56 60 61
Wind_Direction_500mb
168 159 155 151 148 140 132 132 137 138 133 131 129 128 127 125 124 123 120 119 117 114 112 116 123 119 118 115 111 110 110 116 116 121 122 115 115 115 115 115 112 111 109
161 160 157 153 152 150 142 135 137 136 134 133 130 126 123 120 120 119 116 116 113 111 111 115 120 116 111 114 111 111 109 116 123 121 118 116 115 116 117 116 115 115 115
161 160 160 156 154 153 152 147 139 132 131 127 121 111 108 111 120 120 118 114 113 117 116 116 120 121 118 125 122 120 115 112 118 117 120 117 121 117 117 118 117 117 115
161 161 162 158 157 153 153 152 145 138 130 124 117 102 104 115 127 123 118 114 119 123 125 126 122 127 130 129 129 124 114 113 115 118 127 121 121 120 120 123 120 118 119
162 159 158 159 157 153 150 150 145 142 135 131 123 105 105 114 123 124 120 119 120 127 126 128 133 130 132 126 124 124 118 117 113 110 130 125 125 127 122 127 124 124 123
160 159 157 158 157 155 151 152 150 146 140 137 129 113 110 112 119 122 122 122 124 128 126 132 128 131 130 128 130 127 121 129 117 105 134 129 131 128 126 128 128 127 125
160 161 158 161 161 161 159 157 153 150 148 145 138 125 117 122 121 125 127 127 127 132 129 134 132 138 134 128 122 138 123 128 114 99 129 141 132 134 135 132 129 132 130
164 164 161 165 164 164 163 161 157 155 154 150 145 137 124 126 123 130 132 134 134 136 138 139 144 147 140 137 132 134 142 140 126 107 127 144 142 138 136 134 136 139 135
167 169 167 167 167 166 166 164 162 159 157 151 147 144 132 129 127 133 136 138 139 143 144 145 146 151 158 146 141 141 147 141 134 135 142 158 151 152 141 140 140 138 140
167 172 174 171 171 170 170 170 165 165 160 155 149 144 135 133 133 136 140 141 139 145 149 148 148 151 159 162 168 154 156 151 152 179 168 171 166 156 151 146 145 144 144
171 175 176 178 176 174 173 172 169 167 163 157 151 144 141 136 138 140 138 138 138 144 144 142 144 153 157 167 178 162 166 178 154 140 155 168 167 159 157 154 152 148 150
178 183 184 180 181 176 175 174 171 171 168 165 154 151 145 133 128 140 149 136 139 143 145 145 144 151 161 168 182 177 165 174 192 167 162 167 173 174 164 160 163 154 156
181 186 188 183 184 181 176 173 174 171 168 165 161 146 138 148 157 141 148 166 155 151 149 152 154 163 165 171 183 188 163 170 184 206 202 190 182 182 178 171 169 165 166
176 173 178 189 189 185 179 173 174 174 168 164 164 154 141 130 127 138 149 158 156 157 153 147 165 167 177 180 188 200 198 214 219 217 210 194 194 184 179 174 173 171 175
181 181 177 180 190 191 178 170 182 181 180 163 159 159 150 143 126 119 140 154 161 164 165 178 168 185 193 215 208 201 214 263 210 215 210 203 206 193 187 179 186 180 183
193 190 183 185 187 185 176 171 172 171 168 173 170 167 162 159 154 142 156 164 181 204 213 210 206 198 201 219 229 234 227 223 231 229 203 208 204 202 194 195 189 185 184
206 200 191 189 187 178 171 168 180 177 177 181 189 185 181 181 180 174 171 186 198 214 221 211 219 223 233 240 225 229 225 220 230 223 194 203 207 207 206 203 191 189 193
205 208 202 196 194 188 184 177 182 194 203 206 204 202 198 193 198 200 193 201 210 220 212 205 208 217 231 216 210 225 233 235 232 207 205 215 219 218 210 206 205 197 196
204 213 208 200 198 197 196 191 193 201 205 222 218 207 209 205 209 212 210 214 216 218 221 227 224 227 251 224 231 227 227 230 230 213 205 208 218 219 215 213 208 208 202
200 212 221 205 203 201 205 201 199 204 204 210 209 215 211 213 215 216 212 220 225 224 229 230 232 240 226 222 224 231 222 224 231 226 227 222 223 224 215 218 213 211 212
210 211 212 202 207 203 207 212 210 205 209 213 205 198 208 223 222 222 224 232 237 231 231 223 230 220 214 220 223 236 222 224 222 226 232 231 225 227 225 220 222 223 218
208 217 213 214 216 207 210 211 212 211 217 218 220 206 216 225 228 230 237 251 256 238 226 227 223 219 227 220 218 222 238 226 222 227 231 230 230 229 229 227 223 226 228
207 209 211 217 212 211 216 214 215 214 212 220 224 226 225 235 245 248 241 254 259 246 231 225 226 229 239 236 228 231 212 218 230 230 227 230 229 229 226 233 228 226 229
217 219 223 226 218 219 227 227 221 223 222 213 213 222 229 238 243 248 250 255 260 247 234 229 232 231 238 246 242 238 236 228 213 222 234 231 232 232 231 231 230 226 222
213 216 219 223 225 229 230 233 237 231 235 234 229 228 233 237 244 251 255 258 264 250 238 232 232 233 241 248 249 250 246 239 236 238 236 227 232 235 234 231 231 230 222
216 217 219 221 226 232 234 237 242 238 235 232 235 236 232 236 245 253 258 258 259 253 239 237 239 251 255 253 247 252 243 245 243 244 250 248 257 252 239 231 231 233 229
Wind_Speed_850mb
60 58 53 51 49 46 45 49 46 46 43 39 35 33 30 26 26 27 28 26 25 26 26 29 33 29 30 29 33 35 36 35 37 42 45 44 43 42 44 47 46 47 46
69 62 53 50 48 46 44 45 45 45 42 38 33 27 25 24 25 28 29 30 29 30 31 32 37 38 32 34 37 39 37 34 41 43 44 40 45 42 43 45 43 45 45
65 62 55 50 47 45 44 41 40 39 37 34 31 26 22 22 25 29 31 32 32 34 38 41 43 38 31 40 40 43 44 42 38 38 40 42 41 39 41 43 44 45 46
62 60 57 53 48 45 42 40 37 35 33 31 29 25 22 21 29 31 31 30 31 35 40 42 37 33 34 39 40 45 47 46 39 32 38 38 39 37 37 42 41 42 43
61 59 57 55 50 45 42 41 37 34 33 30 27 26 27 30 32 33 31 30 31 37 39 37 33 34 42 43 43 39 34 30 35 29 31 36 40 36 37 40 40 39 38
61 59 57 55 50 45 43 39 35 32 30 29 28 28 30 31 34 33 33 32 32 34 36 37 34 41 43 38 33 36 29 28 31 27 27 32 36 36 35 37 35 34 36
63 60 56 52 48 44 41 37 34 32 30 28 28 28 28 30 30 31 31 32 30 32 35 37 38 42 42 37 38 38 28 30 24 21 25 28 33 33 33 34 34 35 34
63 59 54 49 47 45 42 38 34 32 31 28 29 27 26 27 29 29 29 29 29 30 33 36 38 41 38 34 33 34 32 28 21 14 16 24 28 28 31 32 32 32 32
53 52 53 51 47 43 41 39 37 34 31 30 28 26 23 24 25 27 29 27 27 29 31 34 36 36 39 32 26 28 31 26 16 8 13 19 24 26 28 29 29 31 29
62 53 50 50 48 46 42 39 37 36 35 32 29 26 24 21 22 24 25 26 25 24 28 30 33 36 37 31 25 24 22 25 18 9 15 19 23 25 27 26 28 28 28
62 58 55 49 48 46 43 41 38 37 34 34 30 27 25 23 23 22 23 23 23 22 23 28 31 32 39 33 31 22 22 21 18 18 18 18 23 24 27 27 26 28 28
59 58 54 51 48 47 45 42 39 37 35 34 31 27 29 25 21 22 22 21 21 23 24 25 29 31 31 33 35 29 18 17 21 21 18 17 18 23 27 28 27 28 28
49 49 54 51 49 48 47 43 37 35 34 34 32 28 23 21 21 21 17 19 23 24 24 24 27 29 29 37 40 33 26 22 21 20 24 20 20 21 27 29 28 28 28
51 41 47 49 47 46 44 39 35 35 35 34 35 34 29 24 19 16 14 18 26 25 24 21 24 26 31 28 31 33 33 33 30 30 34 27 25 25 28 30 26 26 29
54 50 48 46 49 47 43 35 31 32 34 40 34 32 29 23 18 14 20 26 24 20 19 18 23 21 27 24 20 25 29 8 27 34 48 32 31 31 30 29 33 29 30
58 51 53 47 35 42 39 30 35 32 35 34 30 29 27 25 21 13 19 23 19 15 12 15 21 14 25 20 26 27 27 19 14 19 38 44 39 38 34 34 33 33 33
59 53 61 52 40 40 37 31 36 31 33 31 30 27 24 25 25 21 21 24 21 19 19 27 25 25 22 18 31 22 28 25 22 19 38 38 41 40 37 35 36 35 34
55 66 60 61 50 47 42 38 33 32 31 31 28 36 27 24 26 26 27 30 32 27 18 22 24 23 18 17 21 21 29 29 28 29 39 39 41 42 42 40 38 40 33
68 64 64 70 59 51 45 45 43 36 33 32 37 42 34 30 27 19 28 27 29 32 26 27 25 20 21 23 22 27 32 29 33 30 36 35 36 41 42 45 47 44 41
72 76 59 73 61 56 47 50 50 45 39 24 35 41 44 35 30 24 19 25 32 32 32 31 27 27 21 16 19 17 31 32 33 36 36 40 40 44 45 45 46 49 46
71 73 67 76 62 59 58 56 61 54 53 39 31 31 40 33 33 28 25 23 23 32 30 29 29 24 22 19 19 17 24 31 35 40 36 40 45 46 51 51 50 50 56
68 71 75 68 62 68 61 52 46 43 57 48 39 30 36 35 37 33 29 25 21 28 34 31 31 23 22 24 17 14 12 27 37 41 42 45 43 45 48 52 54 57 58
66 61 69 62 58 58 55 52 50 43 41 54 57 49 41 38 39 38 36 32 27 31 33 29 24 24 23 22 25 21 11 13 13 35 40 43 43 45 48 48 52 55 57
73 67 65 59 57 59 55 52 54 56 54 49 51 49 50 47 45 39 37 35 32 30 35 31 26 25 25 26 29 32 30 13 14 10 31 44 42 45 45 53 56 52 50
73 72 69 64 63 60 60 59 56 59 55 44 44 48 54 50 48 45 43 40 36 36 39 34 35 33 32 30 31 33 34 36 29 21 15 21 44 47 48 50 57 57 56
74 73 69 70 68 64 60 60 57 61 60 56 53 56 52 52 52 53 51 48 45 41 41 42 36 33 36 39 37 34 36 34 32 35 39 35 22 31 46 52 56 60 61
Wind_Direction_850mb
168 159 155 151 148 140 132 132 137 138 133 131 129 128 127 125 124 123 120 119 117 114 112 116 123 119 118 115 111 110 110 116 116 121 122 115 115 115 115 115 112 111 109
161 160 157 153 152 150 142 135 137 136 134 133 130 126 123 120 120 119 116 116 113 111 111 115 120 116 111 114 111 111 109 116 123 121 118 116 115 116 117 116 115 115 115
161 160 160 156 154 153 152 147 139 132 131 127 121 111 108 111 120 120 118 114 113 117 116 116 120 121 118 125 122 120 115 112 118 117 120 117 121 117 117 118 117 117 115
161 161 162 158 157 153 153 152 145 138 130 124 117 102 104 115 127 123 118 114 119 123 125 126 122 127 130 129 129 124 114 113 115 118 127 121 121 120 120 123 120 118 119
162 159 158 159 157 153 150 150 145 142 135 131 123 105 105 114 123 124 120 119 120 127 126 128 133 130 132 126 124 124 118 117 113 110 130 125 125 127 122 127 124 124 123
160 159 157 158 157 155 151 152 150 146 140 137 129 113 110 112 119 122 122 122 124 128 126 132 128 131 130 128 130 127 121 129 117 105 134 129 131 128 126 128 128 127 125
160 161 158 161 161 161 159 157 153 150 148 145 138 125 117 122 121 125 127 127 127 132 129 134 132 138 134 128 122 138 123 128 114 99 129 141 132 134 135 132 129 132 130
164 164 161 165 164 164 163 161 157 155 154 150 145 137 124 126 123 130 132 134 134 136 138 139 144 147 140 137 132 134 142 140 126 107 127 144 142 138 136 134 136 139 135
167 169 167 167 167 166 166 164 162 159 157 151 147 144 132 129 127 133 136 138 139 143 144 145 146 151 158 146 141 141 147 141 134 135 142 158 151 152 141 140 140 138 140
167 172 174 171 171 170 170 170 165 165 160 155 149 144 135 133 133 136 140 141 139 145 149 148 148 151 159 162 168 154 156 151 152 179 168 171 166 156 151 146 145 144 144
171 175 176 178 176 174 173 172 169 167 163 157 151 144 141 136 138 140 138 138 138 144 144 142 144 153 157 167 178 162 166 178 154 140 155 168 167 159 157 154 152 148 150
178 183 184 180 181 176 175 174 171 171 168 165 154 151 145 133 128 140 149 136 139 143 145 145 144 151 161 168 182 177 165 174 192 167 162 167 173 174 164 160 163 154 156
181 186 188 183 184 181 176 173 174 171 168 165 161 146 138 148 157 141 148 166 155 151 149 152 154 163 165 171 183 188 163 170 184 206 202 190 182 182 178 171 169 165 166
176 173 178 189 189 185 179 173 174 174 168 164 164 154 141 130 127 138 149 158 156 157 153 147 165 167 177 180 188 200 198 214 219 217 210 194 194 184 179 174 173 171 175
181 181 177 180 190 191 178 170 182 181 180 163 159 159 150 143 126 119 140 154 161 164 165 178 168 185 193 215 208 201 214 263 210 215 210 203 206 193 187 179 186 180 183
193 190 183 185 187 185 176 171 172 171 168 173 170 167 162 159 154 142 156 164 181 204 213 210 206 198 201 219 229 234 227 223 231 229 203 208 204 202 194 195 189 185 184
206 200 191 189 187 178 171 168 180 177 177 181 189 185 181 181 180 174 171 186 198 214 221 211 219 223 233 240 225 229 225 220 230 223 194 203 207 207 206 203 191 189 193
205 208 202 196 194 188 184 177 182 194 203 206 204 202 198 193 198 200 193 201 210 220 212 205 208 217 231 216 210 225 233 235 232 207 205 215 219 218 210 206 205 197 196
204 213 208 200 198 197 196 191 193 201 205 222 218 207 209 205 209 212 210 214 216 218 221 227 224 227 251 224 231 227 227 230 230 213 205 208 218 219 215 213 208 208 202
200 212 221 205 203 201 205 201 199 204 204 210 209 215 211 213 215 216 212 220 225 224 229 230 232 240 226 222 224 231 222 224 231 226 227 222 223 224 215 218 213 211 212
210 211 212 202 207 203 207 212 210 205 209 213 205 198 208 223 222 222 224 232 237 231 231 223 230 220 214 220 223 236 222 224 222 226 232 231 225 227 225 220 222 223 218
208 217 213 214 216 207 210 211 212 211 217 218 220 206 216 225 228 230 237 251 256 238 226 227 223 219 227 220 218 222 238 226 222 227 231 230 230 229 229 227 223 226 228
207 209 211 217 212 211 216 214 215 214 212 220 224 226 225 235 245 248 241 254 259 246 231 225 226 229 239 236 228 231 212 218 230 230 227 230 229 229 226 233 228 226 229
217 219 223 226 218 219 227 227 221 223 222 213 213 222 229 238 243 248 250 255 260 247 234 229 232 231 238 246 242 238 236 228 213 222 234 231 232 232 231 231 230 226 222
213 216 219 223 225 229 230 233 237 231 235 234 229 228 233 237 244 251 255 258 264 250 238 232 232 233 241 248 249 250 246 239 236 238 236 227 232 235 234 231 231 230 222
216 217 219 221 226 232 234 237 242 238 235 232 235 236 232 236 245 253 258 258 259 253 239 237 239 251 255 253 247 252 243 245 243 244 250 248 257 252 239 231 231 233 229